[[{"header":{"parameterUnit":"m.s-1","parameterCategory":1,"la1":30.2991,"la2":30.254,"lo1":-89.0895,"lo2":-89.0444,"dy":0.0017,"dx":0.0017,"nx":28,"ny":28,"refTime":"2023-08-24T09:00:00:Z","depth":0,"parameterNumber":2,"parameterNumberName":"U-component_of_WINDS"},"data":[0,0,0,0,0,0,0,0,0,0,0,0,0,0,0,0,0,0,0,0,0,0,0,0,0,0,0,0,0,0,0,0,0,0,0,0,0,0,0,0,0,0,0,0,0,0,0,0,0,0,0,0,0,0,0,0,0,0,-3.1594,-3.1593,0,-3.155,-3.1549,-3.1549,-3.1483,-3.1481,-3.148,-3.1479,-3.1434,-3.1434,-3.1434,0,0,0,0,0,0,0,0,0,0,0,0,0,-3.1622,-3.1621,-3.1594,-3.1593,-3.1593,-3.155,-3.1549,-3.1549,-3.1483,-3.1481,-3.148,-3.1479,-3.1434,-3.1434,-3.1434,0,0,0,0,0,0,0,0,0,0,0,0,0,-3.1597,-3.1621,-3.1594,-3.1554,-3.1551,-3.155,-3.1549,-3.1549,-3.1483,-3.1481,-3.1479,-3.1478,-3.1434,-3.1434,-3.1434,-3.1468,0,0,-3.1433,-3.1433,0,0,0,0,0,0,0,0,-3.1598,-3.1596,-3.1561,-3.1557,-3.1553,-3.152,-3.1543,-3.1522,-3.1483,-3.1509,-3.1479,-3.1477,-3.1464,-3.1461,-3.1457,-3.1466,-3.1464,-3.1433,-3.1433,-3.1433,-3.1433,0,0,0,0,0,0,0,-3.16,-3.1597,-3.1576,-3.156,-3.1556,-3.154,-3.1534,-3.1538,-3.1497,-3.1506,-3.1501,-3.1497,-3.1461,-3.1457,-3.1455,-3.1463,-3.1433,-3.1433,-3.1433,-3.1433,-3.1501,-3.1502,0,0,0,0,0,0,-3.1608,-3.1599,-3.1578,-3.1575,-3.1572,-3.1541,-3.1534,-3.1532,-3.1496,-3.1489,-3.1499,-3.1494,-3.1458,-3.1456,-3.1453,-3.1492,-3.1433,-3.1433,-3.1433,-3.1499,-3.1501,-3.1503,0,0,0,0,0,0,-3.1608,-3.1606,-3.1579,-3.1586,-3.1581,-3.1542,-3.154,-3.1532,-3.1528,-3.1491,-3.1483,-3.1502,-3.1457,-3.1454,-3.1465,-3.1489,-3.1433,-3.1433,-3.1496,-3.1499,-3.1502,-3.1568,0,0,0,0,0,0,-3.161,-3.1607,-3.1619,-3.1587,-3.1581,-3.1592,-3.1541,-3.1533,-3.1528,-3.1522,-3.1492,-3.1485,-3.1455,-3.1466,-3.1465,-3.1488,-3.1432,-3.1494,-3.1498,-3.1501,-3.1564,-3.1573,-3.1581,0,0,0,0,0,-3.1611,-3.1639,-3.162,-3.1618,-3.1595,-3.1593,-3.159,-3.1555,-3.153,-3.1542,-3.1519,-3.1486,-3.1488,-3.1468,-3.1466,-3.1489,-3.1492,-3.1497,-3.1501,-3.156,-3.1571,-3.1581,0,0,0,0,0,0,-3.1674,-3.1634,-3.1612,-3.163,-3.1616,-3.1582,-3.1595,-3.1568,-3.156,-3.1554,-3.1512,-3.1505,-3.1523,-3.1508,-3.1486,-3.1522,-3.1485,-3.1489,-3.153,-3.1541,-3.1549,-3.1552,-3.1432,0,0,0,0,0,-3.169,-3.1691,-3.1657,-3.1676,-3.167,-3.1635,-3.1632,-3.1607,-3.159,-3.1583,-3.1561,-3.1546,-3.1543,-3.1541,-3.1537,-3.1563,-3.1555,-3.1578,-3.1587,-3.1594,-3.1597,-3.1611,-3.1621,-3.1517,-3.1517,-3.1517,0,0,-3.1723,-3.1701,-3.1704,-3.1688,-3.1674,-3.1677,-3.1629,-3.1634,-3.1636,-3.1584,-3.1593,-3.1577,-3.1557,-3.1577,-3.1584,-3.1565,-3.1625,-3.16,-3.1606,-3.1605,-3.1617,-3.1626,-3.1635,-3.152,-3.1519,-3.1519,0,0,-3.1784,-3.1768,-3.1783,-3.177,-3.175,-3.1727,-3.1731,-3.1702,-3.1689,-3.1698,-3.166,-3.1662,-3.1658,-3.1646,-3.1639,-3.1701,-3.167,-3.1701,-3.1745,-3.1759,-3.1767,-3.1774,-3.1795,-3.1804,-3.1705,-3.1705,-3.1705,0,-3.1827,-3.1829,-3.1794,-3.1802,-3.1796,-3.1751,-3.1767,-3.1756,-3.1735,-3.1733,-3.1712,-3.1707,-3.1691,-3.1707,-3.1723,-3.1719,-3.1722,-3.1702,-3.1769,-3.1775,-3.1781,-3.1801,-3.181,-3.1709,-3.1708,-3.1708,-3.1708,0,-3.1884,-3.1887,-3.1901,-3.1883,-3.188,-3.1891,-3.1858,-3.1859,-3.1836,-3.1816,-3.1827,-3.1807,-3.1798,-3.18,-3.1777,-3.1814,-3.1803,-3.1776,-3.1738,-3.1795,-3.1814,-3.1821,-3.1714,-3.1713,-3.1712,-3.1711,0,0,-3.1979,-3.1944,-3.195,-3.1942,-3.1918,-3.1919,-3.193,-3.1922,-3.1924,-3.1913,-3.192,-3.192,-3.1896,-3.1889,-3.1864,-3.1877,-3.1927,-3.1848,-3.1847,-3.1863,-3.1968,-3.1986,-3.1996,-3.1909,-3.191,-3.1911,-3.1969,0,-3.2034,-3.2049,-3.202,-3.2042,-3.2045,-3.2004,-3.2014,-3.2001,-3.1983,-3.1984,-3.1965,-3.1965,-3.1933,-3.1928,-3.194,-3.1919,-3.1947,-3.1915,-3.1915,-3.1916,-3.1919,-3.2005,-3.2025,-3.208,-3.1976,-3.1977,-3.1978,0,-3.2099,-3.2092,-3.2115,-3.2092,-3.2091,-3.21,-3.2092,-3.2093,-3.2078,-3.2065,-3.2059,-3.2031,-3.2041,-3.2007,-3.2021,-3.1999,-3.1998,-3.1989,-3.199,-3.1987,-3.1948,-3.2003,-3.2097,-3.2104,-3.1989,-3.1988,-3.1987,0,-3.2165,-3.2161,-3.2175,-3.217,-3.2143,-3.215,-3.214,-3.2124,-3.2122,-3.2115,-3.2113,-3.2108,-3.2105,-3.2102,-3.2074,-3.2052,-3.2092,-3.2055,-3.2081,-3.2081,-3.2088,-3.2087,-3.2181,-3.2091,-3.2091,-3.2091,-3.2091,0,-3.2228,-3.2243,-3.2204,-3.2212,-3.223,-3.2197,-3.2215,-3.22,-3.2187,-3.2192,-3.2158,-3.2164,-3.2128,-3.2131,-3.211,-3.2124,-3.2124,-3.2113,-3.2107,-3.2115,-3.2116,-3.2112,-3.2106,-3.2093,-3.2093,-3.2092,-3.2092,0,-3.2303,-3.2278,-3.229,-3.2265,-3.2259,-3.2273,-3.2252,-3.2259,-3.2241,-3.2248,-3.2248,-3.222,-3.2221,-3.2195,-3.219,-3.2176,-3.22,-3.2188,-3.2205,-3.22,-3.2227,-3.2225,-3.232,-3.2331,-3.2236,-3.2237,-3.2238,0,-3.2344,-3.2355,-3.2332,-3.2333,-3.2325,-3.2327,-3.2326,-3.2295,-3.2295,-3.2282,-3.2291,-3.229,-3.2287,-3.2292,-3.2271,-3.2268,-3.2255,-3.2289,-3.2254,-3.2262,-3.2254,-3.2253,-3.2254,-3.2295,-3.2296,-3.2297,-3.2298,0,-3.2418,-3.2406,-3.2405,-3.24,-3.2399,-3.2394,-3.2387,-3.239,-3.2357,-3.2359,-3.2361,-3.2359,-3.2356,-3.2356,-3.235,-3.234,-3.2314,-3.231,-3.2315,-3.2322,-3.2331,-3.2326,-3.2223,-3.2307,-3.2306,-3.2305,-3.2305,-3.2304,-3.2476,-3.2485,-3.2471,-3.2471,-3.2463,-3.2458,-3.2464,-3.2448,-3.2448,-3.2443,-3.2427,-3.2431,-3.242,-3.2409,-3.2402,-3.2406,-3.2389,-3.2398,-3.24,-3.2402,-3.2406,-3.2333,-3.2405,-3.2405,-3.2405,-3.2404,-3.2404,0,-3.2548,-3.2538,-3.2539,-3.2531,-3.2532,-3.2509,-3.2501,-3.2503,-3.2508,-3.2499,-3.2498,-3.2501,-3.2501,-3.2483,-3.2481,-3.2488,-3.2476,-3.2488,-3.2486,-3.2485,-3.2421,-3.2416,-3.2498,-3.2498,-3.2498,-3.2498,-3.2498,-3.2498,-3.2586,-3.2599,-3.2586,-3.2596,-3.2586,-3.2591,-3.2588,-3.2584,-3.2576,-3.2581,-3.2582,-3.257,-3.2558,-3.2556,-3.2556,-3.255,-3.2551,-3.2567,-3.2558,-3.2498,-3.2489,-3.248,-3.2475,-3.2568,-3.2568,-3.262,-3.262,-3.2621]},{"header":{"parameterUnit":"m.s-1","parameterCategory":1,"la1":30.2991,"la2":30.254,"lo1":-89.0895,"lo2":-89.0444,"dy":0.0017,"dx":0.0017,"nx":28,"ny":28,"refTime":"2023-08-24T09:00:00:Z","depth":0,"parameterNumber":3,"parameterNumberName":"V-component_of_WINDS"},"data":[0,0,0,0,0,0,0,0,0,0,0,0,0,0,0,0,0,0,0,0,0,0,0,0,0,0,0,0,0,0,0,0,0,0,0,0,0,0,0,0,0,0,0,0,0,0,0,0,0,0,0,0,0,0,0,0,0,0,3.521,3.521,0,3.5264,3.5265,3.5266,3.5321,3.5322,3.5323,3.5323,3.5375,3.5376,3.5376,0,0,0,0,0,0,0,0,0,0,0,0,0,3.5149,3.5149,3.521,3.521,3.5211,3.5264,3.5265,3.5266,3.5321,3.5322,3.5323,3.5324,3.5375,3.5375,3.5376,0,0,0,0,0,0,0,0,0,0,0,0,0,3.5186,3.515,3.5209,3.5245,3.5249,3.5264,3.5265,3.5266,3.5321,3.5322,3.5323,3.5324,3.5374,3.5375,3.5376,3.536,0,0,3.5379,3.538,0,0,0,0,0,0,0,0,3.5184,3.5188,3.5239,3.5243,3.5247,3.5287,3.5263,3.5297,3.5321,3.5293,3.5323,3.5325,3.5345,3.5348,3.5356,3.5362,3.5364,3.538,3.538,3.5381,3.5381,0,0,0,0,0,0,0,3.5181,3.5186,3.5231,3.524,3.5245,3.5257,3.5264,3.5269,3.5312,3.5296,3.53,3.5306,3.5347,3.5355,3.5357,3.5365,3.5379,3.538,3.5381,3.5381,3.536,3.5359,0,0,0,0,0,0,3.5174,3.5184,3.5229,3.5233,3.5218,3.5257,3.5265,3.5273,3.5312,3.5319,3.5305,3.5308,3.5352,3.5356,3.5359,3.5342,3.5381,3.5381,3.5382,3.5361,3.5359,3.5358,0,0,0,0,0,0,3.5172,3.5178,3.5227,3.521,3.5217,3.5257,3.5266,3.5273,3.5281,3.5319,3.5326,3.5305,3.5353,3.5358,3.5359,3.5344,3.5382,3.5383,3.5362,3.536,3.5359,3.5307,0,0,0,0,0,0,3.517,3.5177,3.5172,3.5209,3.5218,3.5227,3.5265,3.5274,3.5284,3.5288,3.5321,3.5328,3.5355,3.5358,3.536,3.5346,3.5384,3.5364,3.5361,3.5359,3.531,3.5303,3.5298,0,0,0,0,0,3.5168,3.5154,3.5171,3.5176,3.5212,3.5226,3.5231,3.5264,3.5282,3.5277,3.5301,3.5327,3.5346,3.5357,3.5361,3.5347,3.5365,3.5362,3.536,3.5313,3.5305,3.5298,0,0,0,0,0,0,3.5112,3.5159,3.5179,3.5177,3.5197,3.5236,3.523,3.5254,3.5269,3.5273,3.5312,3.5318,3.5315,3.5331,3.5343,3.5333,3.5359,3.5357,3.5322,3.5315,3.5309,3.5304,3.5384,0,0,0,0,0,3.5099,3.5108,3.5149,3.5143,3.5152,3.5189,3.5197,3.522,3.5242,3.5251,3.5275,3.5294,3.5305,3.5311,3.5323,3.5313,3.532,3.5305,3.5299,3.5294,3.5291,3.5287,3.528,3.535,3.535,3.535,0,0,3.5073,3.51,3.5103,3.5132,3.5151,3.5158,3.5196,3.5202,3.5207,3.5251,3.5255,3.5273,3.5297,3.5293,3.5292,3.5306,3.5274,3.529,3.5286,3.5286,3.5283,3.5277,3.5271,3.5348,3.5348,3.5348,0,0,3.5029,3.5051,3.5048,3.5067,3.5095,3.512,3.5119,3.5154,3.5169,3.5173,3.5206,3.5212,3.523,3.5245,3.5256,3.5218,3.5242,3.5221,3.5188,3.5184,3.5178,3.5173,3.5159,3.5154,3.5218,3.5218,3.5218,0,3.4992,3.5006,3.5043,3.5047,3.5059,3.5101,3.5098,3.5113,3.5143,3.5149,3.5165,3.5188,3.5207,3.5207,3.5198,3.5205,3.5204,3.5217,3.5176,3.5172,3.5168,3.5155,3.5149,3.5215,3.5216,3.5216,3.5216,0,3.4959,3.4968,3.4962,3.4992,3.5002,3.5002,3.5039,3.5045,3.5067,3.509,3.5093,3.5118,3.5135,3.5137,3.5159,3.514,3.5148,3.5169,3.5196,3.5158,3.5146,3.5141,3.5211,3.5212,3.5213,3.5214,0,0,3.488,3.4931,3.4928,3.4942,3.4977,3.4984,3.4985,3.5004,3.5008,3.5028,3.5029,3.5043,3.5064,3.5075,3.5099,3.5095,3.5062,3.5117,3.5118,3.5105,3.5042,3.5025,3.5018,3.5079,3.5078,3.5078,3.504,0,3.4841,3.4848,3.4882,3.4879,3.4887,3.4927,3.4929,3.495,3.4971,3.498,3.5003,3.5012,3.5038,3.5046,3.5043,3.5067,3.505,3.507,3.5079,3.5079,3.5071,3.5012,3.4994,3.4957,3.5035,3.5034,3.5034,0,3.4796,3.4815,3.4813,3.4848,3.4852,3.4853,3.4873,3.4881,3.4905,3.4921,3.4934,3.4961,3.4964,3.499,3.4994,3.5007,3.5013,3.5025,3.5024,3.5025,3.5053,3.5011,3.4946,3.494,3.5027,3.5028,3.5028,0,3.4738,3.4762,3.4764,3.4775,3.4816,3.4815,3.4832,3.4857,3.4866,3.4883,3.4889,3.4905,3.4913,3.4925,3.4955,3.4972,3.4955,3.4984,3.4967,3.4966,3.496,3.496,3.4895,3.4966,3.4966,3.4966,3.4966,0,3.4691,3.4687,3.4738,3.4739,3.4737,3.4775,3.4771,3.4791,3.4814,3.4818,3.4854,3.4857,3.4898,3.4905,3.4929,3.4928,3.4931,3.4943,3.4949,3.4939,3.4938,3.4943,3.4946,3.4964,3.4965,3.4965,3.4965,0,3.4625,3.4659,3.4663,3.4702,3.4712,3.4708,3.4741,3.4742,3.4766,3.4771,3.4775,3.4812,3.4822,3.4854,3.4872,3.4888,3.488,3.4892,3.4872,3.4876,3.4856,3.4857,3.4791,3.4784,3.486,3.4859,3.4859,0,3.4592,3.4591,3.463,3.4636,3.4652,3.4662,3.4671,3.4709,3.4717,3.4745,3.4743,3.4757,3.477,3.4784,3.4812,3.4826,3.4838,3.4814,3.484,3.483,3.4837,3.4836,3.4836,3.4808,3.4807,3.4806,3.4805,0,3.4529,3.4547,3.456,3.4579,3.4591,3.4607,3.4626,3.4628,3.467,3.4678,3.469,3.47,3.4719,3.4732,3.4751,3.4766,3.4792,3.4797,3.4794,3.4783,3.4771,3.4776,3.4855,3.4798,3.4799,3.4799,3.48,3.48,3.4479,3.4479,3.4507,3.4521,3.4539,3.4556,3.4559,3.4584,3.4595,3.4615,3.4636,3.4646,3.4669,3.4697,3.4711,3.4718,3.4732,3.4727,3.4726,3.4724,3.4719,3.4771,3.4721,3.4722,3.4722,3.4722,3.4722,0,3.4418,3.4438,3.445,3.4476,3.4486,3.4512,3.4533,3.454,3.4548,3.4569,3.4581,3.4595,3.4607,3.4636,3.4651,3.4651,3.4663,3.4653,3.4653,3.4656,3.4706,3.4707,3.4643,3.4643,3.4643,3.4643,3.4643,3.4643,3.4387,3.439,3.441,3.4421,3.4441,3.4452,3.4462,3.4477,3.4494,3.4508,3.4519,3.4538,3.4562,3.4579,3.4591,3.4599,3.4602,3.4589,3.46,3.4645,3.4653,3.466,3.4661,3.4589,3.4589,3.455,3.455,3.455]}]]